SBI2145 UUDD-URWW

Flight info

Callsign SBI2145
Flight time N/A
Altitude 37000
Route TOGMO4Q TOGMO M56 ABAGI B105 NIMTA/K0846F380 B105 NATIT NATIT2J
Aircraft A319/M-SDE3FGHIRWY/LB1

Departure

Time N/A
Airport Domodedovo International Airport (UUDD)

Arrival

Time 2026-04-28 17:01
Airport Volgograd International Airport (URWW)
Time Latitude Longitude Altitude Speed Heading
2026-04-28 16:48 49.49435 44.32418 17046 ft 335 kts 186°
2026-04-28 16:48 49.47114 44.32503 16652 ft 333 kts 186°
2026-04-28 16:49 49.44797 44.32578 16264 ft 332 kts 186°
2026-04-28 16:49 49.42495 44.32637 15880 ft 329 kts 186°
2026-04-28 16:49 49.40215 44.32680 15495 ft 326 kts 186°
2026-04-28 16:49 49.37963 44.32714 15111 ft 322 kts 186°
2026-04-28 16:50 49.35730 44.32743 14745 ft 319 kts 186°
2026-04-28 16:50 49.33524 44.32771 14386 ft 316 kts 186°
2026-04-28 16:50 49.31337 44.32799 14047 ft 312 kts 186°
2026-04-28 16:50 49.29203 44.32827 13691 ft 310 kts 186°
2026-04-28 16:51 49.27057 44.32854 13307 ft 307 kts 186°
2026-04-28 16:51 49.24930 44.32881 12934 ft 305 kts 186°
2026-04-28 16:51 49.22818 44.32910 12554 ft 302 kts 186°
2026-04-28 16:51 49.20726 44.32942 12183 ft 300 kts 186°
2026-04-28 16:52 49.18648 44.32977 11813 ft 297 kts 186°
2026-04-28 16:52 49.16595 44.33014 11452 ft 295 kts 185°
2026-04-28 16:52 49.14553 44.33518 11092 ft 302 kts 168°
2026-04-28 16:52 49.12623 44.34869 10743 ft 306 kts 159°
2026-04-28 16:53 49.10760 44.36324 10410 ft 303 kts 159°
2026-04-28 16:53 49.08892 44.37783 10058 ft 301 kts 159°
2026-04-28 16:53 49.07035 44.39230 9683 ft 298 kts 159°
2026-04-28 16:53 49.05200 44.40657 9282 ft 294 kts 159°
2026-04-28 16:54 49.03392 44.42063 8894 ft 289 kts 158°
2026-04-28 16:54 49.01612 44.43446 8522 ft 286 kts 158°
2026-04-28 16:54 48.99858 44.44806 8153 ft 279 kts 158°
2026-04-28 16:54 48.98152 44.46131 7789 ft 272 kts 158°
2026-04-28 16:55 48.96484 44.47425 7409 ft 266 kts 158°
2026-04-28 16:55 48.94851 44.48688 7028 ft 260 kts 158°
2026-04-28 16:55 48.93285 44.49944 6656 ft 256 kts 155°
2026-04-28 16:55 48.91773 44.51296 6265 ft 248 kts 154°
2026-04-28 16:56 48.90330 44.52645 5858 ft 240 kts 153°
2026-04-28 16:56 48.88926 44.53973 5475 ft 235 kts 153°
2026-04-28 16:56 48.87546 44.55264 5085 ft 229 kts 155°
2026-04-28 16:56 48.86088 44.55824 4676 ft 210 kts 193°
2026-04-28 16:57 48.84865 44.54880 4291 ft 195 kts 231°
2026-04-28 16:57 48.84209 44.53118 3909 ft 190 kts 245°
2026-04-28 16:57 48.83658 44.51357 3558 ft 178 kts 245°
2026-04-28 16:57 48.83138 44.49716 3165 ft 167 kts 246°
2026-04-28 16:58 48.82643 44.48154 2771 ft 162 kts 245°
2026-04-28 16:58 48.82172 44.46667 2399 ft 153 kts 246°
2026-04-28 16:58 48.81730 44.45275 2043 ft 139 kts 246°
2026-04-28 16:58 48.81327 44.44013 1866 ft 130 kts 246°
2026-04-28 16:59 48.80938 44.42797 1557 ft 127 kts 246°
2026-04-28 16:59 48.80568 44.41601 1354 ft 124 kts 246°
2026-04-28 16:59 48.80195 44.40415 1199 ft 124 kts 247°
2026-04-28 16:59 48.79825 44.39239 1054 ft 122 kts 247°
2026-04-28 17:00 48.79454 44.38060 914 ft 124 kts 244°
2026-04-28 17:00 48.79084 44.36883 732 ft 124 kts 244°
2026-04-28 17:00 48.78710 44.35707 581 ft 124 kts 242°
2026-04-28 17:00 48.78347 44.34560 477 ft 111 kts 244°
2026-04-28 17:01 48.78082 44.33722 466 ft 64 kts 244°
2026-04-28 17:01 48.77950 44.33299 453 ft 38 kts 244°
2026-04-28 17:01 48.77833 44.32940 440 ft 38 kts 243°
2026-04-28 17:01 48.77714 44.32580 428 ft 38 kts 243°
2026-04-28 17:02 48.77617 44.32275 415 ft 27 kts 244°
2026-04-28 17:02 48.77539 44.32027 417 ft 22 kts 245°
2026-04-28 17:02 48.77504 44.31875 415 ft 9 kts 275°
2026-04-28 17:02 48.77539 44.31820 411 ft 6 kts 339°
2026-04-28 17:03 48.77623 44.31779 412 ft 12 kts
2026-04-28 17:03 48.77671 44.31867 417 ft 10 kts 64°
2026-04-28 17:03 48.77700 44.31959 418 ft 9 kts 65°
2026-04-28 17:04 48.77770 44.32179 424 ft 15 kts 64°
2026-04-28 17:04 48.77815 44.32324 427 ft 15 kts 64°
2026-04-28 17:05 48.77891 44.32555 433 ft 10 kts 63°
2026-04-28 17:05 48.77923 44.32654 441 ft 13 kts 64°
2026-04-28 17:05 48.77967 44.32791 434 ft 14 kts 63°
2026-04-28 17:06 48.78060 44.33084 457 ft 20 kts 64°
2026-04-28 17:06 48.78125 44.33291 460 ft 24 kts 65°
2026-04-28 17:06 48.78286 44.33803 475 ft 27 kts 64°
2026-04-28 17:07 48.78357 44.34026 473 ft 18 kts 64°
2026-04-28 17:07 48.78415 44.34191 476 ft 17 kts 36°
2026-04-28 17:07 48.78515 44.34177 483 ft 13 kts 345°
2026-04-28 17:07 48.78606 44.34145 484 ft 14 kts 359°
2026-04-28 17:08 48.78671 44.34260 479 ft 17 kts 69°
2026-04-28 17:08 48.78714 44.34425 483 ft 17 kts 69°
2026-04-28 17:08 48.78759 44.34594 485 ft 18 kts 68°
2026-04-28 17:08 48.78801 44.34773 483 ft 19 kts 69°
2026-04-28 17:09 48.78848 44.34965 481 ft 20 kts 70°
2026-04-28 17:09 48.78904 44.35104 486 ft 14 kts 39°
2026-04-28 17:09 48.78948 44.35232 483 ft 14 kts 69°
2026-04-28 17:09 48.78984 44.35375 484 ft 14 kts 69°
2026-04-28 17:10 48.79012 44.35461 483 ft 7 kts 28°
2026-04-28 17:10 48.79055 44.35452 477 ft 4 kts 339°
2026-04-28 17:10 48.79070 44.35445 481 ft 2 kts 340°
2026-04-28 17:10 48.79071 44.35444 481 ft 0 kts 340°